Time,TemperatureF,DewpointF,PressureIn,WindDirection,WindDirectionDegrees,WindSpeedMPH,WindSpeedGustMPH,Humidity,HourlyPrecipIn,Conditions,Clouds,dailyrainin,SolarRadiationWatts/m^2,SoftwareType,DateUTC
2013-02-03 00:00:00,25.3,22.2,29.88,WSW,237,1.1,0.0,88,0.00,-SN,,0.00,0.0,WeatherDisplay:10.37,2013-02-03 05:00:00,
2013-02-03 00:03:00,25.3,22.2,29.88,SW,217,1.1,1.1,88,0.00,-SN,,0.00,0.0,WeatherDisplay:10.37,2013-02-03 05:03:00,
2013-02-03 00:04:00,25.3,22.2,29.88,SW,217,1.1,0.0,88,0.00,-SN,,0.00,0.0,WeatherDisplay:10.37,2013-02-03 05:04:00,
2013-02-03 00:09:00,25.3,22.2,29.88,SSW,198,0.0,0.0,88,0.00,-SN,,0.00,0.0,WeatherDisplay:10.37,2013-02-03 05:09:00,
2013-02-03 00:14:00,25.4,22.3,29.87,SSE,147,3.5,0.0,88,0.00,-SN,,0.00,0.0,WeatherDisplay:10.37,2013-02-03 05:14:00,
2013-02-03 00:19:00,25.4,22.3,29.87,SSE,147,0.0,0.0,88,0.00,-SN,,0.00,0.0,WeatherDisplay:10.37,2013-02-03 05:19:00,
2013-02-03 00:24:00,25.4,22.3,29.87,SW,216,0.0,0.0,88,0.00,-SN,,0.00,0.0,WeatherDisplay:10.37,2013-02-03 05:24:00,
2013-02-03 00:25:00,25.4,22.3,29.87,SW,216,1.1,1.1,88,0.00,-SN,,0.00,0.0,WeatherDisplay:10.37,2013-02-03 05:25:00,
2013-02-03 00:30:00,25.4,22.3,29.87,SW,216,0.0,0.0,88,0.00,-SN,,0.00,0.0,WeatherDisplay:10.37,2013-02-03 05:30:00,
2013-02-03 00:35:00,25.6,22.5,29.87,SW,216,0.0,0.0,88,0.00,-SN,,0.00,0.0,WeatherDisplay:10.37,2013-02-03 05:35:00,
2013-02-03 00:40:00,25.6,22.5,29.87,SW,216,1.1,0.0,88,0.00,-SN,,0.00,0.0,WeatherDisplay:10.37,2013-02-03 05:40:00,
2013-02-03 00:45:00,25.6,22.5,29.86,SW,217,0.0,0.0,88,0.00,-SN,,0.00,0.0,WeatherDisplay:10.37,2013-02-03 05:45:00,
2013-02-03 00:50:00,25.6,22.5,29.86,SW,217,1.1,0.0,88,0.00,-SN,,0.00,0.0,WeatherDisplay:10.37,2013-02-03 05:50:00,
2013-02-03 00:55:00,25.6,22.8,29.86,SW,215,1.1,0.0,89,0.00,-SN,,0.00,0.0,WeatherDisplay:10.37,2013-02-03 05:55:00,
2013-02-03 01:00:00,25.6,22.8,29.86,SW,215,0.0,0.0,89,0.00,-SN,,0.00,0.0,WeatherDisplay:10.37,2013-02-03 06:00:00,
2013-02-03 01:05:00,25.6,22.8,29.86,SW,215,1.1,0.0,89,0.00,-SN,,0.00,0.0,WeatherDisplay:10.37,2013-02-03 06:05:00,
2013-02-03 01:10:00,25.6,22.8,29.86,SW,220,1.1,1.1,89,0.00,-SN,,0.00,0.0,WeatherDisplay:10.37,2013-02-03 06:10:00,
2013-02-03 01:15:00,25.6,22.8,29.85,SW,226,0.0,0.0,89,0.00,-SN,,0.00,0.0,WeatherDisplay:10.37,2013-02-03 06:15:00,
2013-02-03 01:20:00,25.6,22.8,29.85,SW,226,0.0,0.0,89,0.00,-SN,,0.00,0.0,WeatherDisplay:10.37,2013-02-03 06:20:00,
2013-02-03 01:25:00,25.7,22.9,29.85,SW,226,0.0,0.0,89,0.00,-SN,,0.00,0.0,WeatherDisplay:10.37,2013-02-03 06:25:00,
2013-02-03 01:30:00,25.7,22.9,29.84,SW,226,0.0,0.0,89,0.00,-SN,,0.00,0.0,WeatherDisplay:10.37,2013-02-03 06:30:00,
2013-02-03 01:35:00,25.7,22.9,29.84,SW,226,0.0,0.0,89,0.00,-SN,,0.00,0.0,WeatherDisplay:10.37,2013-02-03 06:35:00,
2013-02-03 01:40:00,25.7,22.9,29.84,SW,226,0.0,0.0,89,0.00,-SN,,0.00,0.0,WeatherDisplay:10.37,2013-02-03 06:40:00,
2013-02-03 01:45:00,25.7,22.9,29.84,SW,226,0.0,0.0,89,0.00,-SN,,0.00,0.0,WeatherDisplay:10.37,2013-02-03 06:45:00,
2013-02-03 01:50:00,25.7,22.9,29.84,SW,226,0.0,0.0,89,0.00,-SN,,0.00,0.0,WeatherDisplay:10.37,2013-02-03 06:50:00,
2013-02-03 01:55:00,25.8,23.0,29.84,SW,226,0.0,0.0,89,0.00,-SN,,0.00,0.0,WeatherDisplay:10.37,2013-02-03 06:55:00,
2013-02-03 02:00:00,25.8,23.0,29.83,SW,226,0.0,0.0,89,0.00,-SN,,0.00,0.0,WeatherDisplay:10.37,2013-02-03 07:00:00,
2013-02-03 02:05:00,25.8,23.0,29.83,SW,230,0.0,0.0,89,0.00,-SN,,0.00,0.0,WeatherDisplay:10.37,2013-02-03 07:05:00,
2013-02-03 02:10:00,26.0,23.2,29.83,SW,230,0.0,0.0,89,0.00,-SN,,0.00,0.0,WeatherDisplay:10.37,2013-02-03 07:10:00,
2013-02-03 02:15:00,26.0,23.2,29.83,SW,230,0.0,0.0,89,0.00,-SN,,0.00,0.0,WeatherDisplay:10.37,2013-02-03 07:15:00,
2013-02-03 02:20:00,26.0,23.2,29.83,SW,230,0.0,0.0,89,0.00,-SN,,0.00,0.0,WeatherDisplay:10.37,2013-02-03 07:20:00,
2013-02-03 02:25:00,26.0,23.2,29.83,SW,230,1.1,0.0,89,0.00,-SN,,0.00,0.0,WeatherDisplay:10.37,2013-02-03 07:25:00,
2013-02-03 02:30:00,26.0,23.2,29.82,SW,230,0.0,0.0,89,0.00,-SN,,0.00,0.0,WeatherDisplay:10.37,2013-02-03 07:30:00,
2013-02-03 02:35:00,26.0,22.9,29.82,SW,230,0.0,0.0,88,0.00,OVC,,0.00,0.0,WeatherDisplay:10.37,2013-02-03 07:35:00,
2013-02-03 02:40:00,26.0,22.9,29.82,SW,230,0.0,0.0,88,0.00,OVC,,0.00,0.0,WeatherDisplay:10.37,2013-02-03 07:40:00,
2013-02-03 02:45:00,26.0,22.9,29.81,SW,230,0.0,0.0,88,0.00,OVC,,0.00,0.0,WeatherDisplay:10.37,2013-02-03 07:45:00,
2013-02-03 02:50:00,26.0,22.9,29.81,SW,230,0.0,0.0,88,0.00,OVC,,0.00,0.0,WeatherDisplay:10.37,2013-02-03 07:50:00,
2013-02-03 02:55:00,26.0,22.9,29.81,SW,230,0.0,0.0,88,0.00,OVC,,0.00,0.0,WeatherDisplay:10.37,2013-02-03 07:55:00,
2013-02-03 03:00:00,26.0,22.9,29.81,SW,230,0.0,0.0,88,0.00,OVC,,0.00,0.0,WeatherDisplay:10.37,2013-02-03 08:00:00,
2013-02-03 03:05:00,26.0,22.9,29.81,SW,230,0.0,0.0,88,0.00,OVC,,0.00,0.0,WeatherDisplay:10.37,2013-02-03 08:05:00,
2013-02-03 03:10:00,26.0,22.9,29.81,SW,230,0.0,0.0,88,0.00,OVC,,0.00,0.0,WeatherDisplay:10.37,2013-02-03 08:10:00,
2013-02-03 03:15:00,26.0,22.9,29.80,SW,230,0.0,0.0,88,0.00,OVC,,0.00,0.0,WeatherDisplay:10.37,2013-02-03 08:15:00,
2013-02-03 03:20:00,26.0,22.9,29.80,SW,230,0.0,0.0,88,0.00,OVC,,0.00,0.0,WeatherDisplay:10.37,2013-02-03 08:20:00,
2013-02-03 03:25:00,26.0,22.9,29.80,SW,230,0.0,0.0,88,0.00,OVC,,0.00,0.0,WeatherDisplay:10.37,2013-02-03 08:25:00,
2013-02-03 03:30:00,26.0,22.9,29.80,SW,230,0.0,0.0,88,0.00,OVC,,0.00,0.0,WeatherDisplay:10.37,2013-02-03 08:30:00,
2013-02-03 03:35:00,26.0,22.7,29.80,SW,230,0.0,0.0,87,0.00,OVC,,0.00,0.0,WeatherDisplay:10.37,2013-02-03 08:35:00,
2013-02-03 03:40:00,26.0,22.7,29.80,SW,230,0.0,0.0,87,0.00,OVC,,0.00,0.0,WeatherDisplay:10.37,2013-02-03 08:40:00,
2013-02-03 03:45:00,26.0,22.7,29.79,SW,230,0.0,0.0,87,0.00,OVC,,0.00,0.0,WeatherDisplay:10.37,2013-02-03 08:45:00,
2013-02-03 03:50:00,26.0,22.7,29.79,WSW,241,1.1,0.0,87,0.00,OVC,,0.00,0.0,WeatherDisplay:10.37,2013-02-03 08:50:00,
2013-02-03 03:55:00,26.0,22.7,29.79,WNW,288,0.0,0.0,87,0.00,OVC,,0.00,0.0,WeatherDisplay:10.37,2013-02-03 08:55:00,
2013-02-03 04:00:00,26.0,22.7,29.78,WNW,288,1.1,0.0,87,0.00,OVC,,0.00,0.0,WeatherDisplay:10.37,2013-02-03 09:00:00,
2013-02-03 04:05:00,26.0,22.7,29.78,WNW,288,0.0,0.0,87,0.00,OVC,,0.00,0.0,WeatherDisplay:10.37,2013-02-03 09:05:00,
2013-02-03 04:10:00,26.0,22.7,29.78,WNW,288,1.1,1.1,87,0.00,OVC,,0.00,0.0,WeatherDisplay:10.37,2013-02-03 09:10:00,
2013-02-03 04:15:00,26.0,22.7,29.78,WNW,288,1.0,0.0,87,0.00,OVC,,0.00,0.0,WeatherDisplay:10.37,2013-02-03 09:15:00,
2013-02-03 04:20:00,26.0,22.7,29.78,WNW,288,0.0,0.0,87,0.00,OVC,,0.00,0.0,WeatherDisplay:10.37,2013-02-03 09:20:00,
2013-02-03 04:25:00,26.0,22.7,29.78,WNW,288,0.0,0.0,87,0.00,OVC,,0.00,0.0,WeatherDisplay:10.37,2013-02-03 09:25:00,
2013-02-03 04:30:00,26.0,22.7,29.77,WNW,288,0.0,0.0,87,0.00,OVC,,0.00,0.0,WeatherDisplay:10.37,2013-02-03 09:30:00,
2013-02-03 04:35:00,26.0,22.7,29.77,WNW,288,0.0,0.0,87,0.00,OVC,,0.00,0.0,WeatherDisplay:10.37,2013-02-03 09:35:00,
2013-02-03 04:40:00,26.0,22.7,29.77,WNW,288,0.0,0.0,87,0.00,OVC,,0.00,0.0,WeatherDisplay:10.37,2013-02-03 09:40:00,
2013-02-03 04:45:00,26.0,22.7,29.77,WNW,288,0.0,0.0,87,0.00,OVC,,0.00,0.0,WeatherDisplay:10.37,2013-02-03 09:45:00,
2013-02-03 04:50:00,26.0,22.7,29.77,WNW,288,0.0,0.0,87,0.00,OVC,,0.00,0.0,WeatherDisplay:10.37,2013-02-03 09:50:00,
2013-02-03 04:55:00,26.0,22.7,29.77,WNW,288,0.0,0.0,87,0.00,OVC,,0.00,0.0,WeatherDisplay:10.37,2013-02-03 09:55:00,
2013-02-03 05:00:00,26.0,22.7,29.78,WNW,288,0.0,0.0,87,0.00,OVC,,0.00,0.0,WeatherDisplay:10.37,2013-02-03 10:00:00,
2013-02-03 05:05:00,26.0,22.7,29.78,WNW,288,0.0,0.0,87,0.00,OVC,,0.00,0.0,WeatherDisplay:10.37,2013-02-03 10:05:00,
2013-02-03 05:10:00,26.0,22.7,29.78,WNW,288,0.0,0.1,87,0.00,OVC,,0.00,0.0,WeatherDisplay:10.37,2013-02-03 10:10:00,
2013-02-03 05:15:00,26.0,22.7,29.77,WNW,288,0.0,0.0,87,0.00,OVC,,0.00,0.0,WeatherDisplay:10.37,2013-02-03 10:15:00,
2013-02-03 05:20:00,26.1,22.8,29.77,WNW,292,0.0,0.1,87,0.00,OVC,,0.00,0.0,WeatherDisplay:10.37,2013-02-03 10:20:00,
2013-02-03 05:25:00,26.0,22.7,29.77,NNW,342,3.0,3.0,87,0.00,OVC,,0.00,0.0,WeatherDisplay:10.37,2013-02-03 10:25:00,
2013-02-03 05:30:00,26.0,22.4,29.77,NNW,340,1.1,1.1,86,0.00,OVC,,0.00,0.0,WeatherDisplay:10.37,2013-02-03 10:30:00,
2013-02-03 05:35:00,26.0,22.4,29.77,NNW,339,1.1,1.1,86,0.00,OVC,,0.00,0.0,WeatherDisplay:10.37,2013-02-03 10:35:00,
2013-02-03 05:40:00,25.8,22.2,29.77,NNW,344,3.5,0.0,86,0.00,OVC,,0.00,0.0,WeatherDisplay:10.37,2013-02-03 10:40:00,
2013-02-03 05:45:00,25.8,22.2,29.78,NW,322,0.0,0.0,86,0.00,OVC,,0.00,0.0,WeatherDisplay:10.37,2013-02-03 10:45:00,
2013-02-03 05:50:00,25.8,22.2,29.78,NNW,329,0.0,0.0,86,0.00,OVC,,0.00,0.0,WeatherDisplay:10.37,2013-02-03 10:50:00,
2013-02-03 05:55:00,25.7,21.8,29.78,NNW,333,3.0,3.0,85,0.00,OVC,,0.00,0.0,WeatherDisplay:10.37,2013-02-03 10:55:00,
2013-02-03 06:00:00,25.6,21.7,29.78,NW,323,1.1,1.1,85,0.00,OVC,,0.00,0.0,WeatherDisplay:10.37,2013-02-03 11:00:00,
2013-02-03 06:05:00,25.4,21.2,29.78,NNW,344,0.0,0.0,84,0.00,OVC,,0.00,0.0,WeatherDisplay:10.37,2013-02-03 11:05:00,
2013-02-03 06:10:00,25.4,21.0,29.78,NNW,333,1.1,1.1,83,0.00,OVC,,0.00,0.0,WeatherDisplay:10.37,2013-02-03 11:10:00,
2013-02-03 06:15:00,25.3,20.6,29.78,NNW,330,0.0,0.0,82,0.00,OVC,,0.00,0.0,WeatherDisplay:10.37,2013-02-03 11:15:00,
2013-02-03 06:20:00,25.3,20.6,29.78,North,10,1.0,1.0,82,0.00,OVC,,0.00,0.0,WeatherDisplay:10.37,2013-02-03 11:20:00,
2013-02-03 06:25:00,25.3,20.6,29.78,NW,315,1.1,1.1,82,0.00,OVC,,0.00,0.0,WeatherDisplay:10.37,2013-02-03 11:25:00,
2013-02-03 06:30:00,25.3,20.6,29.78,North,349,1.1,1.1,82,0.00,OVC,,0.00,0.0,WeatherDisplay:10.37,2013-02-03 11:30:00,
2013-02-03 06:35:00,25.1,20.1,29.78,NNW,347,1.1,1.1,81,0.00,OVC,,0.00,0.0,WeatherDisplay:10.37,2013-02-03 11:35:00,
2013-02-03 06:40:00,25.1,20.1,29.78,NNW,343,0.0,0.1,81,0.00,OVC,,0.00,0.0,WeatherDisplay:10.37,2013-02-03 11:40:00,
2013-02-03 06:45:00,25.0,20.0,29.78,West,260,0.0,0.0,81,0.00,OVC,,0.00,0.0,WeatherDisplay:10.37,2013-02-03 11:45:00,
2013-02-03 06:50:00,25.0,20.0,29.78,NW,326,2.3,2.3,81,0.00,OVC,,0.00,0.0,WeatherDisplay:10.37,2013-02-03 11:50:00,
2013-02-03 06:55:00,25.0,20.0,29.78,NNW,340,3.0,3.0,81,0.00,OVC,,0.00,0.0,WeatherDisplay:10.37,2013-02-03 11:55:00,
2013-02-03 07:00:00,25.0,19.7,29.78,WNW,287,2.3,2.3,80,0.00,OVC,,0.00,0.0,WeatherDisplay:10.37,2013-02-03 12:00:00,
2013-02-03 07:05:00,24.8,19.5,29.78,WNW,287,0.0,0.0,80,0.00,OVC,,0.00,0.0,WeatherDisplay:10.37,2013-02-03 12:05:00,
2013-02-03 07:10:00,24.8,19.5,29.78,WNW,287,0.0,0.0,80,0.00,OVC,,0.00,0.0,WeatherDisplay:10.37,2013-02-03 12:10:00,
2013-02-03 07:15:00,24.8,19.5,29.78,WNW,287,0.0,0.0,80,0.00,OVC,,0.00,0.0,WeatherDisplay:10.37,2013-02-03 12:15:00,
2013-02-03 07:20:00,24.7,19.4,29.78,WNW,295,0.0,0.0,80,0.00,OVC,,0.00,0.0,WeatherDisplay:10.37,2013-02-03 12:20:00,
2013-02-03 07:25:00,24.7,19.4,29.78,WNW,295,0.0,0.0,80,0.00,OVC,,0.00,5.0,WeatherDisplay:10.37,2013-02-03 12:25:00,
2013-02-03 07:30:00,24.7,19.1,29.79,NNW,332,2.3,2.3,79,0.00,OVC,,0.00,5.0,WeatherDisplay:10.37,2013-02-03 12:30:00,
2013-02-03 07:35:00,24.7,19.1,29.79,NNW,340,2.0,2.0,79,0.00,OVC,,0.00,7.0,WeatherDisplay:10.37,2013-02-03 12:35:00,
2013-02-03 07:40:00,24.5,18.9,29.79,NNW,344,1.1,0.0,79,0.00,OVC,,0.00,9.0,WeatherDisplay:10.37,2013-02-03 12:40:00,
2013-02-03 07:45:00,24.5,18.9,29.79,NNW,343,1.1,1.1,79,0.00,OVC,,0.00,14.0,WeatherDisplay:10.37,2013-02-03 12:45:00,
2013-02-03 07:50:00,24.5,18.9,29.79,North,0,0.0,0.0,79,0.00,OVC,,0.00,19.0,WeatherDisplay:10.37,2013-02-03 12:50:00,
2013-02-03 07:55:00,24.5,18.9,29.79,North,0,1.1,0.0,79,0.00,OVC,,0.00,25.0,WeatherDisplay:10.37,2013-02-03 12:55:00,
2013-02-03 08:00:00,24.5,18.9,29.79,North,0,0.0,0.0,79,0.00,OVC,,0.00,26.0,WeatherDisplay:10.37,2013-02-03 13:00:00,
2013-02-03 08:05:00,24.7,19.4,29.79,NW,326,0.0,0.0,80,0.00,OVC,,0.00,32.0,WeatherDisplay:10.37,2013-02-03 13:05:00,
2013-02-03 08:10:00,24.8,19.5,29.79,North,359,1.1,0.0,80,0.00,OVC,,0.00,39.0,WeatherDisplay:10.37,2013-02-03 13:10:00,
2013-02-03 08:15:00,24.7,19.1,29.79,NE,48,0.0,0.0,79,0.00,OVC,,0.00,40.0,WeatherDisplay:10.37,2013-02-03 13:15:00,
2013-02-03 08:20:00,24.8,19.2,29.79,North,7,0.0,0.0,79,0.00,OVC,,0.00,48.0,WeatherDisplay:10.37,2013-02-03 13:20:00,
2013-02-03 08:25:00,24.8,18.9,29.79,NNE,28,1.1,1.1,78,0.00,OVC,,0.00,91.0,WeatherDisplay:10.37,2013-02-03 13:25:00,
2013-02-03 08:30:00,25.0,19.1,29.80,North,11,0.0,0.0,78,0.00,OVC,,0.00,128.0,WeatherDisplay:10.37,2013-02-03 13:30:00,
2013-02-03 08:35:00,25.3,19.7,29.80,North,0,1.1,1.1,79,0.00,OVC,,0.00,109.0,WeatherDisplay:10.37,2013-02-03 13:35:00,
2013-02-03 08:40:00,25.4,19.8,29.80,NNE,20,1.1,1.1,79,0.00,OVC,,0.00,99.0,WeatherDisplay:10.37,2013-02-03 13:40:00,
2013-02-03 08:45:00,25.3,19.7,29.80,ENE,61,0.0,0.1,79,0.00,OVC,,0.00,60.0,WeatherDisplay:10.37,2013-02-03 13:45:00,
2013-02-03 08:51:00,25.3,19.7,29.80,North,11,1.1,0.0,79,0.00,OVC,,0.00,51.0,WeatherDisplay:10.37,2013-02-03 13:51:00,
2013-02-03 08:56:00,25.3,19.7,29.80,NNE,25,0.0,0.2,79,0.00,OVC,,0.00,56.0,WeatherDisplay:10.37,2013-02-03 13:56:00,
2013-02-03 09:01:00,25.3,20.0,29.80,North,359,1.1,1.1,80,0.00,OVC,,0.00,58.0,WeatherDisplay:10.37,2013-02-03 14:01:00,
2013-02-03 09:07:00,25.3,20.0,29.80,North,353,1.1,0.0,80,0.00,OVC,,0.00,72.0,WeatherDisplay:10.37,2013-02-03 14:07:00,
2013-02-03 09:12:00,25.3,20.0,29.80,North,1,1.1,0.0,80,0.00,OVC,,0.00,114.0,WeatherDisplay:10.37,2013-02-03 14:12:00,
2013-02-03 09:18:00,25.3,20.0,29.79,North,0,1.1,0.0,80,0.00,OVC,,0.00,79.0,WeatherDisplay:10.37,2013-02-03 14:18:00,
2013-02-03 09:23:00,25.3,19.7,29.79,North,356,3.5,3.5,79,0.00,OVC,,0.00,62.0,WeatherDisplay:10.37,2013-02-03 14:23:00,
2013-02-03 09:29:00,25.0,19.4,29.78,North,10,1.1,1.1,79,0.00,OVC,,0.00,72.0,WeatherDisplay:10.37,2013-02-03 14:29:00,
2013-02-03 09:34:00,24.8,19.5,29.78,North,354,0.0,0.1,80,0.00,OVC,,0.00,67.0,WeatherDisplay:10.37,2013-02-03 14:34:00,
2013-02-03 09:39:00,25.0,19.7,29.78,NNE,28,2.3,2.3,80,0.00,OVC,,0.00,56.0,WeatherDisplay:10.37,2013-02-03 14:39:00,
2013-02-03 09:44:00,24.8,19.5,29.78,NNW,330,1.1,1.1,80,0.00,OVC,,0.00,58.0,WeatherDisplay:10.37,2013-02-03 14:44:00,
2013-02-03 09:49:00,25.0,19.7,29.78,NNW,332,0.0,0.0,80,0.00,OVC,,0.00,70.0,WeatherDisplay:10.37,2013-02-03 14:49:00,
2013-02-03 09:54:00,25.0,19.7,29.78,NNW,337,1.1,1.1,80,0.00,OVC,,0.00,63.0,WeatherDisplay:10.37,2013-02-03 14:54:00,
2013-02-03 10:00:00,25.1,19.8,29.78,WNW,302,1.1,0.0,80,0.00,OVC,,0.00,69.0,WeatherDisplay:10.37,2013-02-03 15:00:00,
2013-02-03 10:05:00,25.1,19.8,29.78,NW,308,1.1,0.0,80,0.00,OVC,,0.00,72.0,WeatherDisplay:10.37,2013-02-03 15:05:00,
2013-02-03 10:10:00,25.1,19.8,29.78,NW,313,0.0,0.0,80,0.00,OVC,,0.00,67.0,WeatherDisplay:10.37,2013-02-03 15:10:00,
2013-02-03 10:15:00,25.1,19.5,29.78,NW,313,0.0,0.0,79,0.00,OVC,,0.00,84.0,WeatherDisplay:10.37,2013-02-03 15:15:00,
2013-02-03 10:20:00,25.3,19.7,29.78,NNW,340,1.1,0.0,79,0.00,OVC,,0.00,84.0,WeatherDisplay:10.37,2013-02-03 15:20:00,
2013-02-03 10:25:00,25.3,19.7,29.78,NNW,342,1.1,1.1,79,0.00,OVC,,0.00,86.0,WeatherDisplay:10.37,2013-02-03 15:25:00,
2013-02-03 10:30:00,25.4,19.5,29.78,NNW,343,2.3,2.3,78,0.00,OVC,,0.00,114.0,WeatherDisplay:10.37,2013-02-03 15:30:00,
2013-02-03 10:35:00,25.4,19.5,29.78,NNW,344,1.1,0.0,78,0.00,OVC,,0.00,150.0,WeatherDisplay:10.37,2013-02-03 15:35:00,
2013-02-03 10:40:00,25.6,19.4,29.78,NNW,343,1.1,1.1,77,0.00,OVC,,0.00,169.0,WeatherDisplay:10.37,2013-02-03 15:40:00,
2013-02-03 10:45:00,25.6,19.1,29.77,West,263,0.0,0.0,76,0.00,OVC,,0.00,216.0,WeatherDisplay:10.37,2013-02-03 15:45:00,
2013-02-03 10:50:00,25.6,18.8,29.77,NE,34,0.0,0.0,75,0.00,OVC,,0.00,183.0,WeatherDisplay:10.37,2013-02-03 15:50:00,
2013-02-03 10:55:00,25.8,19.0,29.77,North,1,2.3,0.0,75,0.00,OVC,,0.00,132.0,WeatherDisplay:10.37,2013-02-03 15:55:00,
2013-02-03 11:00:00,26.0,19.2,29.76,North,354,0.0,0.0,75,0.00,OVC,,0.00,151.0,WeatherDisplay:10.37,2013-02-03 16:00:00,
2013-02-03 11:05:00,26.3,19.5,29.76,NNW,329,1.0,1.0,75,0.00,OVC,,0.00,143.0,WeatherDisplay:10.37,2013-02-03 16:05:00,
2013-02-03 11:10:00,26.1,18.6,29.76,North,354,0.0,0.0,73,0.00,OVC,,0.00,134.0,WeatherDisplay:10.37,2013-02-03 16:10:00,
2013-02-03 11:15:00,26.0,18.5,29.75,North,356,0.0,0.1,73,0.00,OVC,,0.00,162.0,WeatherDisplay:10.37,2013-02-03 16:15:00,
2013-02-03 11:20:00,26.0,18.8,29.75,North,354,0.0,0.0,74,0.00,OVC,,0.00,174.0,WeatherDisplay:10.37,2013-02-03 16:20:00,
2013-02-03 11:25:00,26.3,19.1,29.75,North,6,1.1,1.1,74,0.00,OVC,,0.00,183.0,WeatherDisplay:10.37,2013-02-03 16:25:00,
2013-02-03 11:30:00,26.3,18.8,29.74,SE,141,0.0,0.1,73,0.00,OVC,,0.00,202.0,WeatherDisplay:10.37,2013-02-03 16:30:00,
2013-02-03 11:35:00,26.4,18.9,29.74,SE,141,0.0,0.0,73,0.00,OVC,,0.00,215.0,WeatherDisplay:10.37,2013-02-03 16:35:00,
2013-02-03 11:40:00,26.7,19.2,29.74,NNW,342,2.3,0.0,73,0.00,OVC,,0.00,192.0,WeatherDisplay:10.37,2013-02-03 16:40:00,
2013-02-03 11:45:00,27.0,19.8,29.74,NW,326,1.1,1.1,74,0.00,OVC,,0.00,216.0,WeatherDisplay:10.37,2013-02-03 16:45:00,
2013-02-03 11:50:00,27.2,19.7,29.74,NW,322,1.1,1.1,73,0.00,OVC,,0.00,201.0,WeatherDisplay:10.37,2013-02-03 16:50:00,
2013-02-03 11:55:00,27.5,19.7,29.74,NNE,14,1.1,1.1,72,0.01,RA,,0.01,185.0,WeatherDisplay:10.37,2013-02-03 16:55:00,
2013-02-03 12:00:00,27.5,19.7,29.73,WNW,294,1.1,1.1,72,0.01,RA,,0.01,174.0,WeatherDisplay:10.37,2013-02-03 17:00:00,
2013-02-03 12:05:00,27.8,20.3,29.73,WNW,299,1.1,1.1,73,0.01,OVC,,0.01,172.0,WeatherDisplay:10.37,2013-02-03 17:05:00,
2013-02-03 12:10:00,27.9,20.4,29.73,NW,313,1.1,1.1,73,0.01,OVC,,0.01,183.0,WeatherDisplay:10.37,2013-02-03 17:10:00,
2013-02-03 12:15:00,28.1,20.2,29.72,NW,326,2.3,2.3,72,0.01,OVC,,0.01,209.0,WeatherDisplay:10.37,2013-02-03 17:15:00,
2013-02-03 12:20:00,28.2,20.3,29.72,NNW,343,4.6,4.6,72,0.01,OVC,,0.01,246.0,WeatherDisplay:10.37,2013-02-03 17:20:00,
2013-02-03 12:25:00,28.2,20.3,29.72,NW,322,3.5,3.5,72,0.01,OVC,,0.01,216.0,WeatherDisplay:10.37,2013-02-03 17:25:00,
2013-02-03 12:30:00,28.2,20.3,29.71,WNW,292,1.1,1.1,72,0.01,OVC,,0.01,252.0,WeatherDisplay:10.37,2013-02-03 17:30:00,
2013-02-03 12:35:00,28.4,20.5,29.71,WNW,282,1.1,0.0,72,0.01,OVC,,0.01,232.0,WeatherDisplay:10.37,2013-02-03 17:35:00,
2013-02-03 12:40:00,28.5,20.6,29.71,NNW,344,2.3,2.3,72,0.01,OVC,,0.01,280.0,WeatherDisplay:10.37,2013-02-03 17:40:00,
2013-02-03 12:45:00,28.8,20.6,29.71,NW,316,1.1,1.1,71,0.01,OVC,,0.01,280.0,WeatherDisplay:10.37,2013-02-03 17:45:00,
2013-02-03 12:50:00,29.0,20.8,29.71,NW,306,2.3,0.0,71,0.01,OVC,,0.01,292.0,WeatherDisplay:10.37,2013-02-03 17:50:00,
2013-02-03 12:55:00,29.3,21.1,29.71,WNW,302,2.3,2.3,71,0.00,OVC,,0.01,232.0,WeatherDisplay:10.37,2013-02-03 17:55:00,
2013-02-03 13:00:00,29.3,20.7,29.70,North,350,1.1,1.1,70,0.01,RA,,0.02,230.0,WeatherDisplay:10.37,2013-02-03 18:00:00,
2013-02-03 13:05:00,29.3,20.7,29.70,North,356,2.3,0.0,70,0.01,RA,,0.02,223.0,WeatherDisplay:10.37,2013-02-03 18:05:00,
2013-02-03 13:10:00,29.3,21.1,29.70,NNW,347,0.0,0.0,71,0.01,BKN,,0.02,239.0,WeatherDisplay:10.37,2013-02-03 18:10:00,
2013-02-03 13:15:00,29.4,21.2,29.70,NNW,332,2.3,2.3,71,0.01,BKN,,0.02,262.0,WeatherDisplay:10.37,2013-02-03 18:15:00,
2013-02-03 13:20:00,29.4,20.8,29.70,North,350,2.3,2.3,70,0.01,BKN,,0.02,257.0,WeatherDisplay:10.37,2013-02-03 18:20:00,
2013-02-03 13:25:00,29.4,21.2,29.70,West,277,1.1,1.1,71,0.01,BKN,,0.02,264.0,WeatherDisplay:10.37,2013-02-03 18:25:00,
2013-02-03 13:30:00,29.3,20.7,29.69,North,356,0.0,0.0,70,0.01,BKN,,0.02,271.0,WeatherDisplay:10.37,2013-02-03 18:30:00,
2013-02-03 13:35:00,29.5,20.9,29.69,WNW,301,0.0,0.0,70,0.01,BKN,,0.02,311.0,WeatherDisplay:10.37,2013-02-03 18:35:00,
2013-02-03 13:40:00,30.0,21.4,29.69,NW,305,2.3,2.3,70,0.01,BKN,,0.02,389.0,WeatherDisplay:10.37,2013-02-03 18:40:00,
2013-02-03 13:45:00,30.4,21.8,29.68,NNW,333,1.1,1.1,70,0.01,BKN,,0.02,322.0,WeatherDisplay:10.37,2013-02-03 18:45:00,
2013-02-03 13:50:00,31.0,22.0,29.68,WNW,292,3.5,3.5,69,0.01,BKN,,0.02,475.0,WeatherDisplay:10.37,2013-02-03 18:50:00,
2013-02-03 13:55:00,31.5,21.8,29.68,NW,313,0.0,0.2,67,0.01,BKN,,0.02,394.0,WeatherDisplay:10.37,2013-02-03 18:55:00,
2013-02-03 14:00:00,31.6,21.5,29.68,NW,312,2.3,2.3,66,0.00,BKN,,0.02,252.0,WeatherDisplay:10.37,2013-02-03 19:00:00,
2013-02-03 14:05:00,31.6,21.5,29.68,West,261,4.6,4.6,66,0.01,RA,,0.03,359.0,WeatherDisplay:10.37,2013-02-03 19:05:00,
2013-02-03 14:10:00,31.6,21.2,29.68,NNW,332,3.5,3.5,65,0.01,RA,,0.03,303.0,WeatherDisplay:10.37,2013-02-03 19:10:00,
2013-02-03 14:15:00,31.8,21.4,29.67,West,274,2.3,2.3,65,0.01,BKN,,0.03,303.0,WeatherDisplay:10.37,2013-02-03 19:15:00,
2013-02-03 14:20:00,31.8,21.4,29.67,NW,322,1.1,0.0,65,0.01,BKN,,0.03,267.0,WeatherDisplay:10.37,2013-02-03 19:20:00,
2013-02-03 14:25:00,31.8,21.4,29.67,North,356,3.5,3.5,65,0.01,BKN,,0.03,232.0,WeatherDisplay:10.37,2013-02-03 19:25:00,
2013-02-03 14:30:00,31.8,21.4,29.67,North,11,2.3,2.3,65,0.01,BKN,,0.03,232.0,WeatherDisplay:10.37,2013-02-03 19:30:00,
2013-02-03 14:35:00,31.6,21.5,29.67,NW,315,2.3,2.3,66,0.01,BKN,,0.03,239.0,WeatherDisplay:10.37,2013-02-03 19:35:00,
2013-02-03 14:40:00,31.5,21.4,29.67,WNW,294,1.1,1.1,66,0.01,BKN,,0.03,195.0,WeatherDisplay:10.37,2013-02-03 19:40:00,
2013-02-03 14:45:00,31.3,20.9,29.67,NW,326,3.5,3.5,65,0.01,BKN,,0.03,169.0,WeatherDisplay:10.37,2013-02-03 19:45:00,
2013-02-03 14:50:00,31.2,21.2,29.67,WNW,296,1.1,0.0,66,0.01,BKN,,0.03,260.0,WeatherDisplay:10.37,2013-02-03 19:50:00,
2013-02-03 14:55:00,31.2,20.4,29.67,West,280,2.3,2.3,64,0.01,BKN,,0.03,306.0,WeatherDisplay:10.37,2013-02-03 19:55:00,
2013-02-03 15:00:00,31.3,20.5,29.67,WNW,299,2.3,2.3,64,0.01,BKN,,0.03,334.0,WeatherDisplay:10.37,2013-02-03 20:00:00,
2013-02-03 15:05:00,31.3,20.2,29.67,NW,305,2.3,2.3,63,0.00,BKN,,0.03,99.0,WeatherDisplay:10.37,2013-02-03 20:05:00,
2013-02-03 15:10:00,31.3,20.5,29.67,WNW,295,1.1,0.0,64,0.00,BKN,,0.03,106.0,WeatherDisplay:10.37,2013-02-03 20:10:00,
2013-02-03 15:15:00,31.2,20.1,29.67,WNW,299,5.0,5.0,63,0.00,BKN,,0.03,118.0,WeatherDisplay:10.37,2013-02-03 20:15:00,
2013-02-03 15:20:00,31.0,19.9,29.67,SW,227,2.3,0.0,63,0.00,BKN,,0.03,111.0,WeatherDisplay:10.37,2013-02-03 20:20:00,
2013-02-03 15:25:00,31.0,20.2,29.67,WNW,299,0.0,0.0,64,0.00,BKN,,0.03,157.0,WeatherDisplay:10.37,2013-02-03 20:25:00,
2013-02-03 15:30:00,30.9,19.8,29.67,North,359,3.5,3.5,63,0.00,BKN,,0.03,141.0,WeatherDisplay:10.37,2013-02-03 20:30:00,
2013-02-03 15:35:00,30.9,19.8,29.67,WNW,292,3.5,3.5,63,0.00,BKN,,0.03,127.0,WeatherDisplay:10.37,2013-02-03 20:35:00,
2013-02-03 15:40:00,31.0,19.9,29.67,NW,304,1.1,0.0,63,0.00,BKN,,0.03,86.0,WeatherDisplay:10.37,2013-02-03 20:40:00,
2013-02-03 15:45:00,31.0,19.9,29.66,NW,316,1.0,1.0,63,0.00,BKN,,0.03,74.0,WeatherDisplay:10.37,2013-02-03 20:45:00,
2013-02-03 15:50:00,31.0,19.5,29.66,NW,322,1.1,1.1,62,0.00,BKN,,0.03,65.0,WeatherDisplay:10.37,2013-02-03 20:50:00,
2013-02-03 15:55:00,31.0,19.5,29.66,North,356,1.0,1.0,62,0.00,BKN,,0.03,55.0,WeatherDisplay:10.37,2013-02-03 20:55:00,
2013-02-03 16:00:00,31.0,19.5,29.67,WNW,301,1.0,0.0,62,0.00,BKN,,0.03,48.0,WeatherDisplay:10.37,2013-02-03 21:00:00,
2013-02-03 16:05:00,30.9,19.8,29.67,WNW,292,1.1,1.1,63,0.00,BKN,,0.03,56.0,WeatherDisplay:10.37,2013-02-03 21:05:00,
2013-02-03 16:10:00,30.7,19.2,29.67,WNW,294,3.5,3.5,62,0.00,BKN,,0.03,62.0,WeatherDisplay:10.37,2013-02-03 21:10:00,
2013-02-03 16:15:00,30.7,19.2,29.66,WNW,302,3.5,3.5,62,0.00,BKN,,0.03,70.0,WeatherDisplay:10.37,2013-02-03 21:15:00,
2013-02-03 16:20:00,30.6,19.5,29.66,NW,312,2.3,2.3,63,0.00,BKN,,0.03,63.0,WeatherDisplay:10.37,2013-02-03 21:20:00,
2013-02-03 16:25:00,30.6,19.9,29.66,NW,309,0.0,0.0,64,0.00,BKN,,0.03,44.0,WeatherDisplay:10.37,2013-02-03 21:25:00,
2013-02-03 16:30:00,30.4,19.7,29.66,NW,311,0.0,0.1,64,0.00,BKN,,0.03,35.0,WeatherDisplay:10.37,2013-02-03 21:30:00,
2013-02-03 16:35:00,30.4,19.7,29.66,WSW,258,0.0,0.0,64,0.00,BKN,,0.03,35.0,WeatherDisplay:10.37,2013-02-03 21:35:00,
2013-02-03 16:40:00,30.3,19.6,29.66,WNW,302,1.1,1.1,64,0.00,BKN,,0.03,25.0,WeatherDisplay:10.37,2013-02-03 21:40:00,
2013-02-03 16:45:00,30.1,19.4,29.66,West,264,0.0,0.1,64,0.00,BKN,,0.03,25.0,WeatherDisplay:10.37,2013-02-03 21:45:00,
2013-02-03 16:50:00,30.1,19.7,29.66,West,264,0.0,0.0,65,0.00,BKN,,0.03,23.0,WeatherDisplay:10.37,2013-02-03 21:50:00,
2013-02-03 16:55:00,30.0,19.7,29.66,West,264,0.0,0.0,65,0.00,BKN,,0.03,16.0,WeatherDisplay:10.37,2013-02-03 21:55:00,
2013-02-03 17:00:00,30.0,19.7,29.66,NW,313,0.0,0.0,65,0.00,BKN,,0.03,16.0,WeatherDisplay:10.37,2013-02-03 22:00:00,
2013-02-03 17:05:00,30.0,19.7,29.66,NW,313,0.0,0.0,65,0.00,BKN,,0.03,11.0,WeatherDisplay:10.37,2013-02-03 22:05:00,
2013-02-03 17:10:00,29.8,19.5,29.66,NW,313,0.0,0.0,65,0.00,BKN,,0.03,9.0,WeatherDisplay:10.37,2013-02-03 22:10:00,
2013-02-03 17:15:00,29.8,19.8,29.66,NW,313,0.0,0.0,66,0.00,BKN,,0.03,5.0,WeatherDisplay:10.37,2013-02-03 22:15:00,
2013-02-03 17:20:00,29.7,19.7,29.66,NW,313,0.0,0.0,66,0.00,BKN,,0.03,0.0,WeatherDisplay:10.37,2013-02-03 22:20:00,
2013-02-03 17:25:00,29.5,19.5,29.66,NW,313,0.0,0.0,66,0.00,BKN,,0.03,0.0,WeatherDisplay:10.37,2013-02-03 22:25:00,
2013-02-03 17:30:00,29.4,19.4,29.66,NW,313,0.0,0.0,66,0.00,BKN,,0.03,0.0,WeatherDisplay:10.37,2013-02-03 22:30:00,
2013-02-03 17:35:00,29.3,19.3,29.66,NW,313,0.0,0.0,66,0.00,BKN,,0.03,0.0,WeatherDisplay:10.37,2013-02-03 22:35:00,
2013-02-03 17:40:00,29.1,19.2,29.66,NW,313,0.0,0.0,66,0.00,BKN,,0.03,0.0,WeatherDisplay:10.37,2013-02-03 22:40:00,
2013-02-03 17:45:00,29.0,19.4,29.67,NW,313,0.0,0.0,67,0.00,BKN,,0.03,0.0,WeatherDisplay:10.37,2013-02-03 22:45:00,
2013-02-03 17:50:00,28.8,19.2,29.67,NW,313,0.0,0.0,67,0.00,BKN,,0.03,0.0,WeatherDisplay:10.37,2013-02-03 22:50:00,
2013-02-03 17:55:00,28.7,19.1,29.67,NW,313,0.0,0.0,67,0.00,BKN,,0.03,0.0,WeatherDisplay:10.37,2013-02-03 22:55:00,
2013-02-03 18:00:00,28.5,18.9,29.66,NW,313,0.0,0.0,67,0.00,BKN,,0.03,0.0,WeatherDisplay:10.37,2013-02-03 23:00:00,
2013-02-03 18:05:00,28.4,18.8,29.66,NW,313,0.0,0.0,67,0.00,BKN,,0.03,0.0,WeatherDisplay:10.37,2013-02-03 23:05:00,
2013-02-03 18:10:00,28.2,19.0,29.66,NW,313,0.0,0.0,68,0.00,BKN,,0.03,0.0,WeatherDisplay:10.37,2013-02-03 23:10:00,
2013-02-03 18:15:00,27.9,18.7,29.67,NW,313,0.0,0.0,68,0.00,BKN,,0.03,0.0,WeatherDisplay:10.37,2013-02-03 23:15:00,
2013-02-03 18:20:00,27.8,18.9,29.67,NW,313,0.0,0.0,69,0.00,BKN,,0.03,0.0,WeatherDisplay:10.37,2013-02-03 23:20:00,
2013-02-03 18:25:00,27.8,18.9,29.67,NW,313,0.0,0.0,69,0.00,BKN,,0.03,0.0,WeatherDisplay:10.37,2013-02-03 23:25:00,
2013-02-03 18:30:00,27.6,19.1,29.67,NW,313,0.0,0.0,70,0.00,BKN,,0.03,0.0,WeatherDisplay:10.37,2013-02-03 23:30:00,
2013-02-03 18:35:00,27.5,19.0,29.67,NW,313,0.0,0.0,70,0.00,BKN,,0.03,0.0,WeatherDisplay:10.37,2013-02-03 23:35:00,
2013-02-03 18:40:00,27.5,19.0,29.67,NW,313,0.0,0.0,70,0.00,BKN,,0.03,0.0,WeatherDisplay:10.37,2013-02-03 23:40:00,
2013-02-03 18:45:00,27.3,19.1,29.67,NW,313,0.0,0.0,71,0.00,BKN,,0.03,0.0,WeatherDisplay:10.37,2013-02-03 23:45:00,
2013-02-03 18:50:00,27.3,19.5,29.67,NW,313,0.0,0.0,72,0.00,BKN,,0.03,0.0,WeatherDisplay:10.37,2013-02-03 23:50:00,
2013-02-03 18:55:00,27.3,19.5,29.67,NW,313,0.0,0.0,72,0.00,BKN,,0.03,0.0,WeatherDisplay:10.37,2013-02-03 23:55:00,
2013-02-03 19:00:00,27.3,19.1,29.67,NW,313,0.0,0.0,71,0.00,BKN,,0.03,0.0,WeatherDisplay:10.37,2013-02-04 00:00:00,
2013-02-03 19:05:00,27.3,19.5,29.67,NW,313,0.0,0.0,72,0.00,BKN,,0.03,0.0,WeatherDisplay:10.37,2013-02-04 00:05:00,
2013-02-03 19:10:00,27.2,19.4,29.67,NW,313,0.0,0.0,72,0.00,BKN,,0.03,0.0,WeatherDisplay:10.37,2013-02-04 00:10:00,
2013-02-03 19:15:00,27.2,19.4,29.68,NW,313,0.0,0.0,72,0.00,BKN,,0.03,0.0,WeatherDisplay:10.37,2013-02-04 00:15:00,
2013-02-03 19:20:00,27.0,19.2,29.68,NW,313,0.0,0.0,72,0.00,BKN,,0.03,0.0,WeatherDisplay:10.37,2013-02-04 00:20:00,
2013-02-03 19:25:00,26.9,19.1,29.68,NW,313,0.0,0.0,72,0.00,BKN,,0.03,0.0,WeatherDisplay:10.37,2013-02-04 00:25:00,
2013-02-03 19:30:00,26.9,19.1,29.68,NW,313,0.0,0.0,72,0.00,BKN,,0.03,0.0,WeatherDisplay:10.37,2013-02-04 00:30:00,
2013-02-03 19:35:00,26.7,18.9,29.68,NW,313,0.0,0.0,72,0.00,BKN,,0.03,0.0,WeatherDisplay:10.37,2013-02-04 00:35:00,
2013-02-03 19:40:00,26.6,18.8,29.68,NW,313,0.0,0.0,72,0.00,BKN,,0.03,0.0,WeatherDisplay:10.37,2013-02-04 00:40:00,
2013-02-03 19:45:00,26.6,19.1,29.68,NW,313,0.0,0.0,73,0.00,BKN,,0.03,0.0,WeatherDisplay:10.37,2013-02-04 00:45:00,
2013-02-03 19:50:00,26.6,19.1,29.68,NW,313,0.0,0.0,73,0.00,BKN,,0.03,0.0,WeatherDisplay:10.37,2013-02-04 00:50:00,
2013-02-03 19:55:00,26.4,18.9,29.68,NW,313,0.0,0.0,73,0.00,BKN,,0.03,0.0,WeatherDisplay:10.37,2013-02-04 00:55:00,
2013-02-03 20:00:00,26.4,18.9,29.68,NW,313,0.0,0.0,73,0.00,BKN,,0.03,0.0,WeatherDisplay:10.37,2013-02-04 01:00:00,
2013-02-03 20:05:00,26.4,18.9,29.68,NW,313,0.0,0.0,73,0.00,BKN,,0.03,0.0,WeatherDisplay:10.37,2013-02-04 01:05:00,
2013-02-03 20:10:00,26.6,19.1,29.68,NW,313,0.0,0.0,73,0.00,BKN,,0.03,0.0,WeatherDisplay:10.37,2013-02-04 01:10:00,
2013-02-03 20:15:00,26.6,19.1,29.68,NW,313,0.0,0.0,73,0.00,BKN,,0.03,0.0,WeatherDisplay:10.37,2013-02-04 01:15:00,
2013-02-03 20:20:00,26.6,19.1,29.68,NW,313,0.0,0.0,73,0.00,SCT,,0.03,0.0,WeatherDisplay:10.37,2013-02-04 01:20:00,
2013-02-03 20:25:00,26.7,19.2,29.68,NW,313,0.0,0.0,73,0.00,SCT,,0.03,0.0,WeatherDisplay:10.37,2013-02-04 01:25:00,
2013-02-03 20:30:00,26.7,19.2,29.67,NW,313,0.0,0.0,73,0.00,SCT,,0.03,0.0,WeatherDisplay:10.37,2013-02-04 01:30:00,
2013-02-03 20:35:00,26.9,19.4,29.67,NW,313,0.0,0.0,73,0.00,SCT,,0.03,0.0,WeatherDisplay:10.37,2013-02-04 01:35:00,
2013-02-03 20:40:00,26.9,19.4,29.67,NW,313,0.0,0.0,73,0.00,SCT,,0.03,0.0,WeatherDisplay:10.37,2013-02-04 01:40:00,
2013-02-03 20:45:00,27.0,19.5,29.68,NW,313,1.1,0.0,73,0.00,SCT,,0.03,0.0,WeatherDisplay:10.37,2013-02-04 01:45:00,
2013-02-03 20:50:00,27.0,19.8,29.68,NW,313,0.0,0.0,74,0.00,SCT,,0.03,0.0,WeatherDisplay:10.37,2013-02-04 01:50:00,
2013-02-03 20:55:00,27.2,20.0,29.68,NW,313,0.0,0.0,74,0.00,SCT,,0.03,0.0,WeatherDisplay:10.37,2013-02-04 01:55:00,
2013-02-03 21:00:00,27.2,19.7,29.68,NW,313,0.0,0.0,73,0.00,SCT,,0.03,0.0,WeatherDisplay:10.37,2013-02-04 02:00:00,
2013-02-03 21:05:00,27.3,19.8,29.68,NW,313,0.0,0.0,73,0.00,SCT,,0.03,0.0,WeatherDisplay:10.37,2013-02-04 02:05:00,
2013-02-03 21:10:00,27.5,20.0,29.68,NW,313,0.0,0.0,73,0.00,SCT,,0.03,0.0,WeatherDisplay:10.37,2013-02-04 02:10:00,
2013-02-03 21:15:00,27.6,19.8,29.68,NW,313,0.0,0.0,72,0.00,SCT,,0.03,0.0,WeatherDisplay:10.37,2013-02-04 02:15:00,
2013-02-03 21:20:00,27.8,19.9,29.68,NW,313,0.0,0.0,72,0.00,BKN,,0.03,0.0,WeatherDisplay:10.37,2013-02-04 02:20:00,
2013-02-03 21:25:00,27.9,20.0,29.68,West,260,1.1,0.0,72,0.00,BKN,,0.03,0.0,WeatherDisplay:10.37,2013-02-04 02:25:00,
2013-02-03 21:30:00,27.9,20.0,29.68,SW,219,1.1,0.0,72,0.00,BKN,,0.03,0.0,WeatherDisplay:10.37,2013-02-04 02:30:00,
2013-02-03 21:35:00,28.1,20.2,29.68,SW,219,1.1,1.1,72,0.00,BKN,,0.03,0.0,WeatherDisplay:10.37,2013-02-04 02:35:00,
2013-02-03 21:40:00,28.2,20.7,29.68,SW,219,1.1,0.0,73,0.00,BKN,,0.03,0.0,WeatherDisplay:10.37,2013-02-04 02:40:00,
2013-02-03 21:45:00,28.4,20.8,29.68,SW,219,0.0,0.0,73,0.00,BKN,,0.03,0.0,WeatherDisplay:10.37,2013-02-04 02:45:00,
2013-02-03 21:50:00,28.4,20.8,29.68,SSW,212,1.1,0.0,73,0.00,BKN,,0.03,0.0,WeatherDisplay:10.37,2013-02-04 02:50:00,
2013-02-03 21:55:00,28.4,21.2,29.68,SW,226,0.0,0.0,74,0.00,BKN,,0.03,0.0,WeatherDisplay:10.37,2013-02-04 02:55:00,
2013-02-03 22:00:00,28.4,21.2,29.68,SW,219,1.1,0.0,74,0.00,BKN,,0.03,0.0,WeatherDisplay:10.37,2013-02-04 03:00:00,
2013-02-03 22:05:00,28.5,21.3,29.68,SW,219,1.1,1.1,74,0.00,-SN,,0.03,0.0,WeatherDisplay:10.37,2013-02-04 03:05:00,
2013-02-03 22:10:00,28.5,21.6,29.68,SW,219,1.1,0.0,75,0.00,-SN,,0.03,0.0,WeatherDisplay:10.37,2013-02-04 03:10:00,
2013-02-03 22:15:00,28.5,21.9,29.68,SW,215,0.0,0.0,76,0.00,-SN,,0.03,0.0,WeatherDisplay:10.37,2013-02-04 03:15:00,
2013-02-03 22:20:00,28.4,22.4,29.68,SW,219,0.0,0.0,78,0.00,OVC,,0.03,0.0,WeatherDisplay:10.37,2013-02-04 03:20:00,
2013-02-03 22:25:00,28.4,22.7,29.68,West,272,3.5,3.5,79,0.00,OVC,,0.03,0.0,WeatherDisplay:10.37,2013-02-04 03:25:00,
2013-02-03 22:30:00,28.4,23.0,29.69,WNW,294,1.1,1.1,80,0.00,OVC,,0.03,0.0,WeatherDisplay:10.37,2013-02-04 03:30:00,
2013-02-03 22:35:00,28.4,23.3,29.69,West,271,1.1,1.1,81,0.00,-SN,,0.03,0.0,WeatherDisplay:10.37,2013-02-04 03:35:00,
2013-02-03 22:40:00,28.2,23.1,29.69,WNW,302,1.1,1.1,81,0.00,-SN,,0.03,0.0,WeatherDisplay:10.37,2013-02-04 03:40:00,
2013-02-03 22:45:00,28.2,23.4,29.69,NW,326,1.1,0.0,82,0.00,-SN,,0.03,0.0,WeatherDisplay:10.37,2013-02-04 03:45:00,
2013-02-03 22:50:00,28.1,23.6,29.69,NW,309,2.3,0.0,83,0.00,-SN,,0.03,0.0,WeatherDisplay:10.37,2013-02-04 03:50:00,
2013-02-03 22:55:00,28.1,23.6,29.69,WNW,292,0.0,0.0,83,0.00,-SN,,0.03,0.0,WeatherDisplay:10.37,2013-02-04 03:55:00,
2013-02-03 23:00:00,28.1,23.9,29.70,WNW,299,0.0,0.0,84,0.00,-SN,,0.03,0.0,WeatherDisplay:10.37,2013-02-04 04:00:00,
2013-02-03 23:05:00,28.1,23.9,29.70,WNW,301,0.0,0.0,84,0.00,-SN,,0.03,0.0,WeatherDisplay:10.37,2013-02-04 04:05:00,
2013-02-03 23:10:00,28.1,24.2,29.70,West,280,3.5,3.5,85,0.00,-SN,,0.03,0.0,WeatherDisplay:10.37,2013-02-04 04:10:00,
2013-02-03 23:15:00,27.9,24.3,29.70,North,0,3.5,3.5,86,0.00,-SN,,0.03,0.0,WeatherDisplay:10.37,2013-02-04 04:15:00,
2013-02-03 23:20:00,27.6,24.2,29.70,North,1,5.8,5.8,87,0.00,-SN,,0.03,0.0,WeatherDisplay:10.37,2013-02-04 04:20:00,
2013-02-03 23:25:00,27.5,24.1,29.70,WNW,299,11.5,11.5,87,0.00,-SN,,0.03,0.0,WeatherDisplay:10.37,2013-02-04 04:25:00,
2013-02-03 23:30:00,27.2,23.8,29.70,WNW,287,4.6,4.6,87,0.00,-SN,,0.03,0.0,WeatherDisplay:10.37,2013-02-04 04:30:00,
2013-02-03 23:35:00,26.9,23.3,29.70,WNW,298,10.4,10.4,86,0.00,-SN,,0.03,0.0,WeatherDisplay:10.37,2013-02-04 04:35:00,
2013-02-03 23:40:00,26.6,22.7,29.70,WNW,291,3.5,3.5,85,0.00,-SN,,0.03,0.0,WeatherDisplay:10.37,2013-02-04 04:40:00,
2013-02-03 23:45:00,26.3,22.1,29.70,NW,315,5.8,5.8,84,0.00,-SN,,0.03,0.0,WeatherDisplay:10.37,2013-02-04 04:45:00,
2013-02-03 23:50:00,25.8,19.0,29.70,NNW,332,16.1,16.1,75,0.00,-SN,,0.03,0.0,WeatherDisplay:10.37,2013-02-04 04:50:00,
2013-02-03 23:55:00,25.3,17.9,29.70,WNW,287,6.9,6.9,73,0.00,-SN,,0.03,0.0,WeatherDisplay:10.37,2013-02-04 04:55:00,